GHANASAT-1

Last updated on Fri Feb 16 2018 09:57:32 GMT+0000 (Coordinated Universal Time)

1 42821U 98067MV 18046.81102560 .00014074 00000-0 16089-3 0 9992 2 42821 51.6350 256.4137 0003031 84.2850 275.8490 15.62457305 34821
UTC large
Height (km)
Speed (km/s)
/
Latitude / Longitude
Inclination (degrees)
Orbital Period (minutes)
Azimuth
Elevation
Range (km)
Doppler Factor

Next 0 passes for location: London (51.5072 / 0.1276)

Sorry there are no passes over London.